Location: Poughquag
(41.6090°N, 73.6820°W)
Time: 01:41:25
(UTC-04:00)

Vanguard 2 Rocket - Pass Details

Date: 06 June 2020
Orbit: 556 x 3324 km, 32.9° (Epoch: 06 July)

Event Time Altitude Azimuth Distance (km) Brightness Sun altitude
Rises 14:10:23 0° 234° (SW) 3,027 10.0 65.2°
Reaches altitude 10° 14:12:33 10° 224° (SW) 2,292 9.5 64.9°
Maximum altitude 14:17:19 34° 159° (SSE) 1,601 8.8 64.3°
Drops below altitude 10° 14:24:44 10° 99° (E) 3,623 9.9 63.2°
Sets 14:29:06 0° 92° (E) 5,107 10.5 62.5°
